Theta_e
294 295 295 295 295 295 294 294 293 292 292 291 291 291 291 291 291 291 291 291 290 290 290 289 289 289 288 287 285 284 285 286 286 288 286 280 277 277 282 279 278 280 279
294 294 294 294 294 293 293 292 292 292 291 291 291 290 290 290 290 290 289 290 289 289 289 288 289 290 288 288 285 285 284 283 286 285 287 284 274 271 271 273 279 281 278
293 292 291 292 292 292 292 291 291 291 291 291 291 290 290 290 290 289 289 289 289 289 289 288 288 287 286 285 285 284 283 284 282 284 285 281 273 272 274 275 274 274 279
293 292 291 291 291 291 291 291 291 291 291 291 291 291 290 290 289 289 288 288 288 288 287 287 287 286 285 284 284 283 283 279 278 281 281 276 272 273 274 273 277 277 278
293 292 292 292 292 292 291 291 291 291 291 290 290 289 289 289 289 287 287 287 286 286 285 285 285 283 285 286 285 283 282 276 276 276 274 272 272 278 279 276 275 276 277
294 293 293 292 292 291 291 290 289 289 289 288 288 287 287 288 292 292 289 286 286 286 284 283 284 282 284 287 288 288 287 281 282 278 275 274 274 274 274 276 276 275 274
292 291 291 291 290 290 289 289 288 287 287 287 286 286 286 288 291 290 288 286 285 284 283 283 284 284 282 283 286 287 285 288 288 283 282 276 274 274 275 278 278 277 277
290 290 290 290 289 289 289 288 287 287 286 286 285 285 286 288 290 289 287 285 284 284 283 283 283 283 285 284 283 282 282 282 282 281 279 278 278 279 279 279 278 278 279
289 288 289 289 288 287 287 286 286 285 285 284 284 284 285 287 289 288 286 284 284 283 283 283 283 284 288 287 283 282 281 281 284 286 287 288 287 286 284 279 275 273 271
287 287 287 288 288 287 286 285 284 285 284 284 283 284 284 286 289 288 286 285 284 284 284 284 286 285 288 286 282 281 280 280 280 280 281 282 282 282 283 278 277 272 273
286 286 286 286 286 285 285 285 284 284 283 283 283 284 284 285 287 288 287 285 285 283 282 283 284 287 287 287 286 282 282 281 281 278 278 277 278 277 277 277 277 277 276
285 285 284 284 285 285 284 284 284 284 283 283 283 283 284 285 287 288 288 287 286 283 282 283 284 285 286 286 284 285 284 280 275 274 272 273 273 273 274 275 275 276 277
284 283 283 283 284 284 284 284 283 284 283 282 282 282 282 283 286 288 287 285 284 282 283 284 284 283 283 283 284 282 280 280 279 278 276 276 273 273 271 269 269 269 269
283 282 283 282 282 283 284 284 283 283 282 282 282 281 282 282 283 282 283 282 282 282 282 281 282 282 283 281 278 277 279 279 280 279 279 278 275 267 267 269 266 266 264
282 282 282 282 282 282 283 283 283 283 284 283 283 283 281 281 281 283 281 278 278 280 280 278 271 270 271 272 271 277 277 278 277 279 279 279 272 267 266 264 264 263 264
282 282 282 282 282 282 282 282 285 286 286 286 286 285 282 285 286 286 286 285 284 282 269 269 268 269 276 277 277 277 278 278 278 279 279 279 274 267 264 263 264 263 263
282 282 282 282 282 282 282 282 281 284 287 287 286 287 286 286 286 286 286 285 284 280 276 279 278 277 278 278 278 277 277 278 278 278 277 273 273 262 263 263 263 263 263
283 283 283 282 282 282 282 282 282 281 281 282 286 286 287 286 285 285 285 282 275 277 279 279 278 276 268 267 277 276 276 276 276 275 274 274 272 272 267 262 262 263 262
283 283 283 283 283 282 282 282 282 282 281 281 282 284 284 285 285 284 282 268 271 275 279 279 279 279 279 278 277 276 276 275 274 275 274 274 274 272 272 262 262 264 264
283 283 283 282 282 282 282 281 281 280 280 280 280 281 282 282 280 280 270 266 265 278 278 278 278 278 278 278 277 276 276 275 275 274 274 275 275 274 274 274 272 268 263
283 283 283 282 282 282 281 281 281 280 280 280 280 281 282 280 278 278 278 277 271 277 277 277 277 277 277 278 278 277 277 277 276 275 274 274 275 275 277 276 275 274 268
283 282 282 282 282 281 281 281 280 280 280 279 279 280 283 279 279 278 278 278 278 278 279 278 278 277 277 277 277 276 276 276 276 276 276 275 275 275 276 276 275 275 273
282 282 282 282 282 282 281 281 280 280 279 279 279 280 280 279 278 278 279 279 278 277 277 278 277 276 277 276 276 275 273 273 275 276 275 275 274 274 275 275 275 274 273
282 282 281 281 281 281 281 280 280 279 279 279 279 279 279 278 279 279 280 277 273 266 254 258 266 269 269 264 265 269 272 274 274 273 273 272 273 273 274 274 274 274 274
282 281 281 281 281 280 280 280 279 279 278 278 277 278 279 279 278 276 271 268 262 252 252 252 252 253 253 253 254 255 256 261 261 265 265 267 268 269 271 273 274 274 274
281 281 281 281 280 280 279 279 278 278 277 276 276 277 277 273 271 269 264 258 251 251 251 250 251 251 252 253 254 258 262 266 263 263 263 266 269 270 272 272 272 273 273
Wind_Speed
13 12 12 11 11 10 10 9 9 6 7 7 7 7 7 6 6 6 6 6 6 5 4 5 6 5 4 4 3 3 4 4 7 4 1 2 4 4 5 3 3 5 4
11 11 11 10 10 10 9 9 8 8 6 7 7 6 6 6 6 7 6 5 6 6 6 5 5 3 5 4 4 5 4 4 3 10 4 3 3 2 4 4 3 3 3
11 11 9 9 10 10 9 8 7 7 7 6 6 7 6 6 6 6 6 5 5 5 5 4 4 3 4 2 3 3 3 2 3 3 5 1 3 1 3 3 3 4 3
11 10 10 10 9 8 7 7 7 7 7 7 6 6 5 5 5 5 5 4 4 3 2 2 3 3 3 2 2 3 2 2 2 2 3 3 2 2 1 2 4 1 3
10 10 9 8 7 7 7 7 7 7 6 6 7 5 5 5 4 5 5 5 4 4 3 2 2 2 1 2 2 2 2 1 1 1 1 2 2 2 2 2 2 2 3
9 9 9 9 9 8 7 7 7 7 7 7 7 7 6 4 8 8 7 6 6 5 5 5 4 5 5 6 6 5 1 2 2 1 1 2 3 2 2 1 1 3 3
9 8 9 9 9 8 8 9 8 8 7 8 8 8 7 6 10 10 10 6 6 6 5 5 4 3 5 5 7 8 7 9 5 1 4 2 2 2 1 4 2 1 2
8 8 8 10 10 9 10 9 9 8 9 8 8 8 8 6 12 12 12 8 7 7 6 5 5 5 5 6 6 6 6 6 6 2 2 3 2 3 2 2 2 3 2
9 9 8 10 11 10 11 10 9 10 9 8 8 8 9 8 12 13 11 7 9 8 6 6 6 6 9 11 7 7 6 6 7 13 13 13 11 10 5 2 3 3 3
8 8 8 9 10 11 10 11 7 9 10 8 9 8 7 8 11 13 10 7 9 7 7 7 12 8 15 14 7 5 6 4 5 6 5 6 7 6 7 3 0 2 2
7 8 9 9 10 11 9 9 10 11 11 10 10 7 6 4 9 13 13 6 7 7 7 7 7 15 16 16 11 6 6 4 6 4 3 3 3 4 2 2 1 1 1
9 9 9 9 8 9 12 10 10 11 11 9 9 8 5 4 10 14 14 13 13 9 8 7 8 15 16 14 9 14 12 7 3 4 3 3 2 3 3 3 3 1 1
9 10 10 9 8 9 11 11 9 9 8 8 7 7 6 4 6 16 17 17 16 10 8 12 14 13 12 11 13 11 8 5 5 5 5 3 2 3 4 3 3 2 2
12 10 9 10 9 8 7 7 8 8 7 7 7 8 7 6 5 4 6 9 14 10 12 8 10 12 13 9 4 6 5 4 4 3 4 2 3 3 3 2 2 3 2
12 10 9 8 9 8 6 6 6 4 7 8 7 8 9 8 4 9 8 6 6 9 9 5 3 4 4 4 4 5 5 5 5 4 4 5 3 3 3 2 1 2 1
12 9 8 8 8 8 8 8 12 11 12 12 13 9 4 12 15 15 15 17 17 13 4 4 3 4 6 4 4 4 5 5 4 4 4 4 3 2 3 3 2 1 1
12 11 9 9 8 9 9 9 11 10 14 15 14 14 14 16 17 16 16 16 15 9 7 5 5 3 4 4 4 3 2 2 2 3 3 3 3 2 3 2 2 1 2
11 13 9 9 9 9 9 9 8 10 11 9 12 11 15 16 16 17 16 14 6 5 6 5 4 3 1 2 2 2 2 3 3 3 3 3 2 2 2 2 2 2 2
12 9 9 8 8 9 8 8 8 8 8 8 7 9 10 16 16 14 10 4 4 5 5 5 4 3 1 1 2 3 3 4 4 4 4 3 3 2 3 3 3 4 3
11 14 12 9 9 9 8 8 8 8 8 7 7 8 8 10 8 7 2 3 3 5 5 4 3 1 1 1 2 2 3 4 4 4 4 4 3 3 3 4 3 3 3
9 10 13 10 10 9 9 8 8 8 8 9 9 8 14 8 8 7 5 4 4 4 4 4 3 3 3 3 2 4 3 4 5 5 5 5 6 5 6 4 5 4 4
9 10 9 10 10 10 9 8 8 8 8 10 8 9 18 7 7 6 6 6 4 3 3 3 3 3 3 2 3 1 5 5 6 6 6 6 7 7 7 8 8 7 5
10 11 10 9 9 11 9 9 8 8 8 10 9 9 9 8 7 6 6 5 3 2 2 4 5 4 3 2 4 1 3 5 4 5 6 8 8 8 8 9 9 8 6
10 11 10 10 9 10 9 9 9 11 10 10 10 9 9 8 8 7 7 4 3 1 2 3 2 2 2 3 3 4 4 4 4 5 7 7 8 10 9 9 10 12 11
10 10 10 10 10 11 10 9 10 10 11 10 10 8 9 8 6 3 3 3 2 2 2 2 1 1 2 4 5 5 5 7 5 6 4 7 10 11 10 10 11 10 12
10 10 9 9 9 10 9 10 10 11 11 10 10 9 7 5 3 3 3 3 3 2 2 2 3 4 5 4 6 7 7 8 7 8 6 5 8 9 9 10 12 10 12
Wind_Direction
182 180 174 180 179 173 182 185 189 169 172 183 185 190 196 194 191 191 203 201 205 219 212 213 227 218 223 214 208 205 214 210 260 282 285 286 294 298 307 308 288 291 282
175 171 180 169 168 172 181 177 167 180 171 179 179 189 192 195 190 195 204 194 201 214 227 218 241 222 233 222 205 218 219 206 243 287 297 307 253 299 277 301 297 291 286
158 163 160 165 169 176 179 166 164 166 172 172 173 187 189 191 189 197 197 196 206 215 218 216 243 215 244 234 228 241 231 230 205 260 296 8 274 321 321 293 291 305 285
155 159 164 167 172 172 160 160 163 162 160 165 174 175 176 172 175 169 167 174 186 185 185 204 232 222 241 276 255 256 256 236 184 233 266 271 271 317 297 288 328 331 310
151 153 159 148 143 141 148 148 144 147 149 145 139 135 130 133 146 142 147 149 139 117 98 82 67 47 4 235 198 237 191 183 155 242 288 314 299 323 323 292 274 293 296
140 139 134 136 135 138 134 130 124 121 124 121 121 120 111 105 120 130 134 125 112 98 86 68 62 58 39 42 40 36 138 168 319 336 252 232 265 242 280 290 301 14 338
122 129 132 131 128 129 123 120 120 119 114 111 110 108 102 97 99 98 102 102 103 92 87 78 71 53 63 66 65 73 62 54 48 220 303 231 293 240 271 340 342 311 278
118 121 124 126 124 122 119 117 113 115 115 113 107 102 98 87 99 104 104 99 99 89 90 88 84 63 56 81 78 72 63 47 33 20 203 266 231 277 266 300 303 305 289
125 125 124 127 125 124 121 120 116 114 109 108 108 101 100 86 98 114 113 110 96 95 84 69 72 63 60 81 80 77 61 35 28 47 52 48 42 28 60 25 355 33 325
133 129 121 123 125 122 123 120 110 110 108 106 99 90 94 102 106 115 120 116 112 102 77 57 68 76 78 86 87 86 75 36 33 31 30 33 32 22 31 56 41 31 320
117 115 116 115 119 119 111 115 116 114 109 105 104 104 94 92 114 111 123 114 108 100 94 86 79 81 84 80 73 71 77 67 43 48 33 15 10 12 3 347 9 139 283
120 114 112 113 118 120 120 117 117 116 118 119 116 103 95 85 111 117 115 103 112 112 108 101 94 87 81 76 69 65 63 63 44 38 36 1 349 338 319 315 325 336 13
118 118 117 110 111 118 127 127 124 127 127 126 129 124 114 95 107 107 115 117 114 108 112 107 97 91 87 71 64 59 53 51 48 41 20 350 285 284 292 319 338 17 42
128 125 122 119 116 116 119 130 130 134 140 142 139 135 129 127 124 107 113 116 115 109 106 96 98 92 83 86 56 44 54 48 49 37 15 341 283 359 342 340 20 338 31
129 126 125 124 128 123 110 120 129 127 151 151 148 144 147 143 153 133 130 126 130 126 117 109 61 51 53 37 35 56 52 45 38 23 16 10 340 355 337 342 11 357 75
133 135 137 136 133 128 124 117 111 124 138 135 136 137 118 138 143 135 130 121 127 123 80 93 85 75 73 71 63 57 52 43 25 22 12 8 1 340 326 331 17 35 297
140 141 138 140 140 139 139 139 136 127 125 128 138 140 142 142 132 138 132 121 120 116 100 98 87 87 103 91 66 54 39 13 9 8 3 356 346 330 10 335 334 346 306
139 143 142 145 146 144 144 140 141 144 143 141 149 144 140 138 141 139 129 122 109 88 101 112 125 135 138 100 39 28 357 356 0 348 351 353 355 350 337 323 309 278 283
145 149 147 145 145 143 140 142 143 142 142 140 142 141 150 149 149 141 128 119 131 111 116 135 142 134 99 35 13 344 330 333 332 333 330 334 330 308 300 267 272 265 244
152 151 149 145 145 146 149 150 143 148 148 150 157 158 152 149 157 154 115 112 102 122 143 163 174 207 266 298 307 315 323 327 317 311 309 300 273 253 270 282 276 271 252
147 151 151 148 151 156 156 154 153 155 154 164 166 168 170 162 162 167 161 151 127 152 178 199 211 230 251 263 267 298 302 304 303 302 303 308 305 294 295 264 268 261 247
150 156 157 156 153 159 158 157 159 160 166 171 170 179 177 171 173 171 169 169 167 179 189 207 228 233 247 248 275 246 287 295 297 300 299 294 299 297 294 288 285 281 265
156 156 157 156 157 155 159 160 161 163 168 177 174 177 180 179 178 181 177 177 165 174 203 227 239 251 255 242 270 276 286 287 305 311 297 293 290 289 289 287 286 280 267
158 159 159 159 161 164 166 165 166 177 181 180 178 182 183 183 187 190 191 158 122 81 349 332 353 341 338 337 350 346 330 308 279 282 290 285 285 287 284 279 281 280 278
163 162 164 168 169 175 174 171 176 183 185 182 184 185 186 189 182 153 115 125 128 155 255 283 295 308 286 292 293 295 284 291 287 296 284 273 268 271 273 275 278 276 273
167 168 171 170 173 173 176 177 183 186 185 184 185 187 181 157 151 161 163 164 168 195 234 249 262 272 282 275 274 275 274 280 278 267 253 257 282 284 282 281 283 285 282